Tracking 28790 objects as of 19-Apr-2024
HD Live streaming from Space Station
objects crossing your sky now

COSMOS 2251 DEB

Track COSMOS 2251 DEB now!
10-day predictions


NORAD ID: 35474
Int'l Code: 1993-036ALU
Perigee: 610.2 km
Apogee: 618.5 km
Inclination: 74.0 °
Period: 96.8 minutes
Semi major axis: 6985 km
RCS: 0.0059 m2 (small)
Launch date: June 16, 1993
Source: Commonwealth of Independent States (former USSR) (CIS)
Launch site: PLESETSK MISSILE AND SPACE COMPLEX (PKMTR)

Note: This is SATELLITE DEBRIS
Your satellite tracking list
Your tracking list is empty




NASA's NSSDC Master Catalog

Two Line Element Set (TLE):
1 35474U 93036ALU 24109.42360132  .00042112  00000-0  46704-2 0  9994
2 35474  73.9902   3.4517 0005964 173.7615 310.9259 14.87037884794075
Source of the keplerian elements: AFSPC